• In Netherlands
  • List of Countries
  • For 7 days
  • Water Temperature
  • Satellite Maps
  • Weather Map
  • Weather Widgets
  • user-avatar
    Login

    Hourly Weather Belmopan

    Today, 20 September, Wednesday

    Time Temperature Precipitation Wind Pressure Humidity
    00:00 +26°C° 0 mm 1 mps 751 mmHg 98%
    01:00 +26°C° 0 mm 1 mps 751 mmHg 98%
    02:00 +24°C° 0 mm 0 mps 750 mmHg 98%
    03:00 +24°C° 0 mm 0 mps 750 mmHg 98%
    04:00 +24°C° 0 mm 0 mps 750 mmHg 98%
    05:00 +24°C° 0 mm 0 mps 750 mmHg 98%
    06:00 +24°C° 0 mm 0 mps 751 mmHg 98%
    07:00 +28°C° 0 mm 1 mps 751 mmHg 88%
    08:00 +30°C° 0 mm 1 mps 751 mmHg 78%
    09:00 +32°C° 0 mm 2 mps 751 mmHg 68%
    10:00 +34°C° 0.2 mm 2 mps 751 mmHg 64%
    11:00 +35°C° 0.2 mm 2 mps 751 mmHg 60%
    12:00 +36°C° 0.2 mm 2 mps 750 mmHg 57%
    13:00 +36°C° 0.2 mm 2 mps 750 mmHg 57%
    14:00 +36°C° 0.2 mm 2 mps 749 mmHg 57%
    15:00 +36°C° 0.2 mm 2 mps 749 mmHg 57%
    16:00 +34°C° 0 mm 2 mps 749 mmHg 64%
    17:00 +31°C° 0 mm 2 mps 749 mmHg 72%
    18:00 +30°C° 0 mm 2 mps 749 mmHg 79%
    19:00 +29°C° 0.1 mm 1 mps 749 mmHg 85%
    20:00 +28°C° 0.1 mm 1 mps 750 mmHg 90%
    21:00 +27°C° 0.1 mm 1 mps 751 mmHg 96%
    22:00 +27°C° 0.1 mm 1 mps 751 mmHg 97%
    23:00 +27°C° 0.1 mm 1 mps 751 mmHg 98%

    Tomorrow, 21 September, Thursday

    Time Temperature Precipitation Wind Pressure Humidity
    00:00 +26°C° 0.1 mm 1 mps 751 mmHg 99%
    01:00 +26°C° 0.1 mm 1 mps 750 mmHg 99%
    02:00 +26°C° 0.1 mm 1 mps 750 mmHg 98%
    03:00 +26°C° 0.1 mm 1 mps 750 mmHg 98%
    04:00 +24°C° 0.1 mm 0 mps 750 mmHg 98%
    05:00 +24°C° 0.1 mm 0 mps 750 mmHg 98%
    06:00 +24°C° 0.1 mm 0 mps 750 mmHg 98%
    07:00 +26°C° 0.5 mm 0 mps 750 mmHg 92%
    08:00 +29°C° 0.5 mm 1 mps 751 mmHg 85%
    09:00 +31°C° 0.5 mm 1 mps 751 mmHg 78%
    10:00 +31°C° 1.1 mm 1 mps 751 mmHg 78%
    11:00 +32°C° 1.1 mm 1 mps 750 mmHg 78%
    12:00 +32°C° 1.1 mm 2 mps 750 mmHg 78%
    13:00 +34°C° 0.6 mm 2 mps 749 mmHg 72%
    14:00 +34°C° 0.6 mm 2 mps 749 mmHg 67%
    15:00 +35°C° 0.6 mm 2 mps 748 mmHg 62%
    16:00 +32°C° 0.1 mm 2 mps 748 mmHg 68%
    17:00 +31°C° 0.1 mm 2 mps 748 mmHg 74%
    18:00 +29°C° 0.1 mm 1 mps 748 mmHg 80%
    19:00 +28°C° 0.1 mm 1 mps 749 mmHg 85%
    20:00 +27°C° 0.1 mm 1 mps 750 mmHg 91%
    21:00 +26°C° 0.1 mm 1 mps 750 mmHg 96%
    22:00 +26°C° 0.2 mm 1 mps 750 mmHg 97%
    23:00 +26°C° 0.2 mm 1 mps 750 mmHg 98%

    Day after tomorrow, 22 September, Friday

    Time Temperature Precipitation Wind Pressure Humidity
    00:00 +24°C° 0.2 mm 0 mps 750 mmHg 99%
    01:00 +24°C° 0.1 mm 0 mps 750 mmHg 99%
    02:00 +24°C° 0.1 mm 0 mps 749 mmHg 99%
    03:00 +24°C° 0.1 mm 0 mps 749 mmHg 99%
    04:00 +23°C° 1.2 mm 0 mps 749 mmHg 99%
    05:00 +23°C° 1.2 mm 0 mps 749 mmHg 99%
    06:00 +23°C° 1.2 mm 0 mps 750 mmHg 99%
    07:00 +25°C° 1.1 mm 0 mps 750 mmHg 94%
    08:00 +28°C° 1.1 mm 1 mps 750 mmHg 90%
    09:00 +30°C° 1.1 mm 1 mps 751 mmHg 85%
    10:00 +31°C° 1 mm 1 mps 750 mmHg 83%
    11:00 +31°C° 1 mm 1 mps 750 mmHg 80%
    12:00 +32°C° 1 mm 2 mps 749 mmHg 77%
    13:00 +32°C° 0.7 mm 2 mps 749 mmHg 74%
    14:00 +32°C° 0.7 mm 2 mps 748 mmHg 72%
    15:00 +34°C° 0.7 mm 2 mps 747 mmHg 69%
    16:00 +31°C° 0.1 mm 2 mps 747 mmHg 73%
    17:00 +30°C° 0.1 mm 1 mps 748 mmHg 78%
    18:00 +29°C° 0.1 mm 1 mps 748 mmHg 82%
    19:00 +28°C° 0 mm 1 mps 748 mmHg 86%
    20:00 +27°C° 0 mm 1 mps 749 mmHg 89%
    21:00 +27°C° 0 mm 1 mps 750 mmHg 93%
    22:00 +26°C° 0 mm 1 mps 749 mmHg 94%
    23:00 +24°C° 0 mm 0 mps 749 mmHg 96%

    23 September, Saturday

    Time Temperature Precipitation Wind Pressure Humidity
    00:00 +24°C° 0 mm 0 mps 749 mmHg 97%
    01:00 +24°C° 0.1 mm 0 mps 749 mmHg 98%
    02:00 +24°C° 0.1 mm 0 mps 748 mmHg 98%
    03:00 +24°C° 0.1 mm 0 mps 748 mmHg 99%
    04:00 +24°C° 0.2 mm 0 mps 748 mmHg 99%
    05:00 +24°C° 0.2 mm 0 mps 748 mmHg 99%
    06:00 +24°C° 0.2 mm 0 mps 749 mmHg 99%
    07:00 +25°C° 0.1 mm 0 mps 749 mmHg 91%
    08:00 +29°C° 0.1 mm 1 mps 749 mmHg 84%
    09:00 +31°C° 0.1 mm 1 mps 750 mmHg 77%
    10:00 +32°C° 0.6 mm 1 mps 749 mmHg 73%
    11:00 +33°C° 0.6 mm 1 mps 749 mmHg 70%
    12:00 +34°C° 0.6 mm 1 mps 749 mmHg 66%
    13:00 +34°C° 0.8 mm 1 mps 748 mmHg 65%
    14:00 +35°C° 0.8 mm 2 mps 747 mmHg 64%
    15:00 +35°C° 0.8 mm 2 mps 746 mmHg 63%
    16:00 +32°C° 0.3 mm 2 mps 747 mmHg 71%
    17:00 +31°C° 0.3 mm 1 mps 747 mmHg 79%
    18:00 +29°C° 0.3 mm 1 mps 747 mmHg 86%
    19:00 +28°C° 0.2 mm 1 mps 748 mmHg 89%
    20:00 +28°C° 0.2 mm 1 mps 748 mmHg 93%
    21:00 +27°C° 0.2 mm 1 mps 749 mmHg 96%
    22:00 +27°C° 0 mm 1 mps 749 mmHg 96%
    23:00 +27°C° 0 mm 1 mps 749 mmHg 96%

    24 September, Sunday

    Time Temperature Precipitation Wind Pressure Humidity
    00:00 +25°C° 0 mm 0 mps 749 mmHg 97%
    01:00 +24°C° 0 mm 0 mps 748 mmHg 97%
    02:00 +24°C° 0 mm 0 mps 748 mmHg 97%
    03:00 +24°C° 0 mm 0 mps 748 mmHg 97%
    04:00 +24°C° 0 mm 0 mps 748 mmHg 98%
    05:00 +24°C° 0 mm 0 mps 748 mmHg 98%
    06:00 +24°C° 0 mm 0 mps 748 mmHg 98%
    07:00 +26°C° 0.1 mm 0 mps 749 mmHg 90%
    08:00 +30°C° 0.1 mm 1 mps 749 mmHg 82%
    09:00 +32°C° 0.1 mm 1 mps 749 mmHg 74%
    10:00 +33°C° 0.7 mm 1 mps 749 mmHg 73%
    11:00 +33°C° 0.7 mm 1 mps 748 mmHg 71%
    12:00 +34°C° 0.7 mm 1 mps 748 mmHg 69%
    13:00 +34°C° 0.6 mm 1 mps 747 mmHg 66%
    14:00 +35°C° 0.6 mm 2 mps 746 mmHg 63%
    15:00 +36°C° 0.6 mm 2 mps 746 mmHg 60%
    16:00 +34°C° 0.2 mm 2 mps 746 mmHg 67%
    17:00 +31°C° 0.2 mm 1 mps 746 mmHg 74%
    18:00 +30°C° 0.2 mm 1 mps 747 mmHg 82%
    19:00 +29°C° 0.1 mm 1 mps 747 mmHg 86%
    20:00 +28°C° 0.1 mm 1 mps 748 mmHg 90%
    21:00 +27°C° 0.1 mm 1 mps 748 mmHg 94%
    22:00 +27°C° 0.2 mm 1 mps 748 mmHg 95%
    23:00 +27°C° 0.2 mm 1 mps 748 mmHg 97%

    25 September, Monday

    Time Temperature Precipitation Wind Pressure Humidity
    00:00 +27°C° 0.2 mm 1 mps 748 mmHg 98%
    01:00 +27°C° 0 mm 1 mps 748 mmHg 98%
    02:00 +27°C° 0 mm 1 mps 748 mmHg 98%
    03:00 +25°C° 0 mm 0 mps 747 mmHg 98%
    04:00 +25°C° 1 mm 0 mps 747 mmHg 98%
    05:00 +25°C° 1 mm 0 mps 748 mmHg 98%
    06:00 +24°C° 1 mm 0 mps 748 mmHg 98%
    07:00 +26°C° 1.6 mm 0 mps 748 mmHg 94%
    08:00 +29°C° 1.6 mm 1 mps 749 mmHg 89%
    09:00 +31°C° 1.6 mm 1 mps 749 mmHg 84%
    10:00 +32°C° 1.5 mm 1 mps 749 mmHg 80%
    11:00 +33°C° 1.5 mm 1 mps 748 mmHg 77%
    12:00 +33°C° 1.5 mm 1 mps 748 mmHg 73%
    13:00 +33°C° 1 mm 1 mps 747 mmHg 75%
    14:00 +33°C° 1 mm 1 mps 747 mmHg 76%
    15:00 +32°C° 1 mm 1 mps 746 mmHg 78%
    16:00 +31°C° 0.3 mm 1 mps 747 mmHg 81%
    17:00 +30°C° 0.3 mm 1 mps 747 mmHg 85%
    18:00 +29°C° 0.3 mm 1 mps 747 mmHg 88%
    19:00 +29°C° 0.8 mm 1 mps 748 mmHg 90%
    20:00 +28°C° 0.8 mm 1 mps 748 mmHg 92%
    21:00 +28°C° 0.8 mm 1 mps 749 mmHg 95%
    22:00 +28°C° 0.1 mm 1 mps 748 mmHg 95%
    23:00 +27°C° 0.1 mm 1 mps 748 mmHg 96%
    Show more